Location: Unspecified
(52.4292°N, 19.3359°E)
Time: 16:46:52
(UTC+02:00)

Transit 2A Rocket - Pass Details

Date: 26 May 2024
Orbit: 583 x 910 km, 66.7° (Epoch: 14 June)

Event Time Altitude Azimuth Distance (km) Brightness Sun altitude
Rises 02:36:26 0° 167° (SSE) 2,993 - -12.1°
Exits shadow 02:37:51 - 159° (SSE) 2,542 7.3 -12.0°
Reaches altitude 10° 02:39:17 10° 148° (SSE) 2,145 7.0 -11.9°
Maximum altitude 02:42:32 18° 106° (ESE) 1,744 7.0 -11.7°
Drops below altitude 10° 02:45:57 10° 65° (ENE) 2,300 8.4 -11.4°
Sets 02:49:09 0° 47° (NE) 3,302 9.9 -11.2°
